TimeCDT,TemperatureF,Dew PointF,Humidity,Sea Level PressureIn,VisibilityMPH,Wind Direction,Wind SpeedMPH,Gust SpeedMPH,PrecipitationIn,Events,Conditions,WindDirDegrees,DateUTC
12:15 AM,32.0,26.6,80,30.58,10.0,NNE,3.5,-,N/A,,Unknown,30,2013-05-02 05:15:00
12:35 AM,30.2,26.6,86,30.58,10.0,Calm,Calm,-,N/A,,Unknown,0,2013-05-02 05:35:00
12:55 AM,30.2,26.6,86,30.59,10.0,North,4.6,-,N/A,,Unknown,360,2013-05-02 05:55:00
1:15 AM,28.4,28.4,100,30.59,10.0,NW,3.5,-,N/A,,Unknown,310,2013-05-02 06:15:00
1:35 AM,28.4,26.6,93,30.60,10.0,WNW,3.5,-,N/A,,Unknown,290,2013-05-02 06:35:00
1:55 AM,28.4,26.6,93,30.61,10.0,WNW,3.5,-,N/A,,Unknown,290,2013-05-02 06:55:00
2:15 AM,28.4,28.4,100,30.61,10.0,WNW,3.5,-,N/A,,Unknown,290,2013-05-02 07:15:00
2:35 AM,28.4,28.4,100,30.61,10.0,WNW,3.5,-,N/A,,Unknown,290,2013-05-02 07:35:00
2:55 AM,26.6,26.6,100,30.61,10.0,WNW,3.5,-,N/A,,Unknown,300,2013-05-02 07:55:00
3:15 AM,26.6,26.6,100,30.60,10.0,WNW,4.6,-,N/A,,Unknown,290,2013-05-02 08:15:00
3:35 AM,26.6,26.6,100,30.60,10.0,West,5.8,-,N/A,,Unknown,280,2013-05-02 08:35:00
3:55 AM,26.6,26.6,100,30.61,10.0,Calm,Calm,-,N/A,,Unknown,0,2013-05-02 08:55:00
4:15 AM,26.6,26.6,100,30.61,10.0,NW,4.6,-,N/A,,Unknown,310,2013-05-02 09:15:00
4:35 AM,26.6,26.6,100,30.61,10.0,NW,5.8,-,N/A,,Clear,320,2013-05-02 09:35:00
4:55 AM,26.6,24.8,93,30.61,10.0,NW,3.5,-,N/A,,Unknown,320,2013-05-02 09:55:00
5:15 AM,24.8,24.8,100,30.62,10.0,WNW,3.5,-,N/A,,Unknown,300,2013-05-02 10:15:00
5:35 AM,24.8,24.8,100,30.63,10.0,WNW,4.6,-,N/A,,Unknown,300,2013-05-02 10:35:00
5:55 AM,24.8,24.8,100,30.63,10.0,WNW,5.8,-,N/A,,Unknown,300,2013-05-02 10:55:00
6:15 AM,26.6,24.8,93,30.63,10.0,WNW,6.9,-,N/A,,Unknown,300,2013-05-02 11:15:00
6:35 AM,26.6,24.8,93,30.64,10.0,NNW,5.8,-,N/A,,Unknown,330,2013-05-02 11:35:00
6:55 AM,26.6,24.8,93,30.64,10.0,NW,5.8,-,N/A,,Unknown,310,2013-05-02 11:55:00
7:15 AM,26.6,26.6,100,30.65,10.0,NW,5.8,-,N/A,,Unknown,310,2013-05-02 12:15:00
7:35 AM,26.6,26.6,100,30.67,10.0,NW,4.6,-,N/A,,Unknown,320,2013-05-02 12:35:00
7:55 AM,28.4,28.4,100,30.67,10.0,NNW,8.1,-,N/A,,Unknown,340,2013-05-02 12:55:00
8:15 AM,30.2,28.4,93,30.68,10.0,NNW,9.2,-,N/A,,Unknown,340,2013-05-02 13:15:00
8:35 AM,32.0,30.2,93,30.69,10.0,North,8.1,-,N/A,,Unknown,360,2013-05-02 13:35:00
8:55 AM,32.0,30.2,93,30.69,10.0,North,5.8,-,N/A,,Unknown,10,2013-05-02 13:55:00
9:15 AM,32.0,30.2,93,30.68,10.0,North,5.8,-,N/A,,Unknown,10,2013-05-02 14:15:00
9:35 AM,33.8,30.2,87,30.69,10.0,NE,4.6,-,N/A,,Unknown,40,2013-05-02 14:35:00
9:55 AM,35.6,32.0,87,30.68,10.0,NE,5.8,-,N/A,,Unknown,50,2013-05-02 14:55:00
10:15 AM,35.6,30.2,81,30.67,10.0,North,5.8,-,N/A,,Unknown,10,2013-05-02 15:15:00
10:35 AM,37.4,26.6,65,30.67,10.0,North,6.9,-,N/A,,Unknown,360,2013-05-02 15:35:00
10:55 AM,39.2,26.6,61,30.67,10.0,NNW,12.7,16.1,N/A,,Unknown,340,2013-05-02 15:55:00
11:15 AM,39.2,24.8,56,30.66,10.0,NW,10.4,18.4,N/A,,Unknown,320,2013-05-02 16:15:00
11:35 AM,39.2,23.0,52,30.66,10.0,North,15.0,21.9,N/A,,Unknown,350,2013-05-02 16:35:00
11:55 AM,41.0,23.0,49,30.66,10.0,North,13.8,20.7,N/A,,Unknown,350,2013-05-02 16:55:00
12:15 PM,41.0,23.0,49,30.64,10.0,North,15.0,23.0,N/A,,Unknown,360,2013-05-02 17:15:00
12:35 PM,42.8,21.2,42,30.64,10.0,NNW,16.1,21.9,N/A,,Unknown,340,2013-05-02 17:35:00
12:55 PM,42.8,19.4,39,30.63,10.0,NNW,16.1,-,N/A,,Unknown,340,2013-05-02 17:55:00
1:15 PM,44.6,23.0,43,30.62,10.0,North,16.1,24.2,N/A,,Unknown,360,2013-05-02 18:15:00
1:35 PM,44.6,23.0,43,30.61,10.0,NNE,12.7,21.9,N/A,,Unknown,20,2013-05-02 18:35:00
1:55 PM,44.6,21.2,39,30.60,10.0,NW,15.0,23.0,N/A,,Unknown,320,2013-05-02 18:55:00
2:15 PM,44.6,21.2,39,30.59,10.0,NNW,12.7,24.2,N/A,,Unknown,330,2013-05-02 19:15:00
2:35 PM,46.4,19.4,34,30.58,10.0,North,17.3,21.9,N/A,,Unknown,350,2013-05-02 19:35:00
2:55 PM,46.4,19.4,34,30.58,10.0,NNW,15.0,-,N/A,,Unknown,340,2013-05-02 19:55:00
3:15 PM,46.4,19.4,34,30.57,10.0,North,12.7,27.6,N/A,,Unknown,350,2013-05-02 20:15:00
3:35 PM,46.4,19.4,34,30.57,10.0,North,17.3,26.5,N/A,,Unknown,350,2013-05-02 20:35:00
3:55 PM,46.4,19.4,34,30.56,10.0,North,17.3,21.9,N/A,,Unknown,350,2013-05-02 20:55:00
4:15 PM,46.4,21.2,37,30.55,10.0,NNW,15.0,24.2,N/A,,Unknown,340,2013-05-02 21:15:00
4:35 PM,46.4,21.2,37,30.55,4.0,NNW,15.0,21.9,N/A,,Haze,330,2013-05-02 21:35:00
4:55 PM,46.4,21.2,37,30.54,10.0,NNW,16.1,23.0,N/A,,Unknown,340,2013-05-02 21:55:00
5:15 PM,46.4,21.2,37,30.53,10.0,North,16.1,24.2,N/A,,Unknown,10,2013-05-02 22:15:00
5:35 PM,46.4,21.2,37,30.53,10.0,NNW,17.3,24.2,N/A,,Unknown,340,2013-05-02 22:35:00
5:55 PM,46.4,21.2,37,30.53,10.0,North,11.5,-,N/A,,Unknown,10,2013-05-02 22:55:00
6:15 PM,46.4,23.0,40,30.53,10.0,NNE,12.7,21.9,N/A,,Unknown,20,2013-05-02 23:15:00
6:55 PM,44.6,23.0,43,30.53,10.0,North,9.2,-,N/A,,Unknown,360,2013-05-02 23:55:00
7:15 PM,44.6,23.0,43,30.53,10.0,North,13.8,18.4,N/A,,Unknown,360,2013-05-03 00:15:00
7:35 PM,44.6,26.6,49,30.53,10.0,NE,13.8,18.4,N/A,,Unknown,40,2013-05-03 00:35:00
7:55 PM,42.8,26.6,53,30.53,10.0,NE,15.0,-,N/A,,Unknown,40,2013-05-03 00:55:00
8:15 PM,41.0,26.6,57,30.53,10.0,NE,15.0,-,N/A,,Unknown,40,2013-05-03 01:15:00
8:35 PM,39.2,28.4,65,30.53,10.0,NE,12.7,-,N/A,,Unknown,50,2013-05-03 01:35:00
8:55 PM,37.4,28.4,70,30.53,10.0,NE,12.7,-,N/A,,Unknown,50,2013-05-03 01:55:00
9:15 PM,35.6,28.4,75,30.53,10.0,NE,12.7,-,N/A,,Unknown,50,2013-05-03 02:15:00
9:35 PM,35.6,28.4,75,30.53,10.0,ENE,13.8,-,N/A,,Unknown,60,2013-05-03 02:35:00
9:55 PM,33.8,28.4,81,30.53,10.0,NE,12.7,-,N/A,,Unknown,50,2013-05-03 02:55:00
10:15 PM,32.0,28.4,87,30.53,10.0,ENE,12.7,-,N/A,,Unknown,60,2013-05-03 03:15:00
10:35 PM,32.0,28.4,87,30.53,10.0,NE,13.8,-,N/A,,Unknown,50,2013-05-03 03:35:00
10:55 PM,32.0,28.4,87,30.53,10.0,ENE,11.5,-,N/A,,Unknown,60,2013-05-03 03:55:00
11:15 PM,30.2,28.4,93,30.52,10.0,ENE,11.5,-,N/A,,Unknown,60,2013-05-03 04:15:00
11:35 PM,28.4,26.6,93,30.52,10.0,ENE,11.5,-,N/A,,Unknown,70,2013-05-03 04:35:00
11:55 PM,28.4,26.6,93,30.52,10.0,ENE,11.5,-,N/A,,Unknown,60,2013-05-03 04:55:00